Bangor, ME

7:08 PM EST on December 15, 2019 (GMT -0500)
Bangor International

Weather History for KBGR - October, 2019

Change the Weather History Date:

Thursday, October 31, 2019

  Actual Average Record
Temperature  
Mean Temperature 58 °F 42 °F  
Max Temperature 63 °F 52 °F 71 °F (1956)
Min Temperature 54 °F 33 °F 16 °F (1944)
Degree Days  
Heating Degree Days 6 23  
Month to date heating degree days 476 554  
Since 1 July heating degree days 690 826  
Cooling Degree Days 0 0  
Month to date cooling degree days 0 1  
Year to date cooling degree days 336 318  
Growing Degree Days 8 (Base 50)    
Moisture  
Dew Point 57 °F    
Average Humidity 96    
Maximum Humidity 100    
Minimum Humidity 93    
Precipitation  
Precipitation 0.38 in 0.13 in 1.72 in (1962)
Month to date precipitation 5.80 4.17  
Year to date precipitation 44.82 34.25  
Snow  
Snow 0.00 in 0.00 in T in (2010)
Month to date snowfall 0.0 0.1  
Since 1 July snowfall 0.0 0.1  
Since 1 September snowfall 0.0 0.1  
Snow Depth 0.00 in    
Sea Level Pressure  
Sea Level Pressure 29.92 in    
Wind  
Wind Speed 8 mph ()    
Max Wind Speed 30 mph    
Max Gust Speed 38 mph    
Visibility 3.3 miles    
Events Rain    
T = Trace of Precipitation, MM = Missing Value Source: Averaged Metar Reports

Daily Weather History Graph

Daily Weather History Graph

Search for Another Location

Airport or City:

Astronomy

Oct. 31, 2019 Rise Set
Actual Time 7:11 AM EDT 5:25 PM EDT
Civil Twilight 6:41 AM EDT 5:55 PM EDT
Nautical Twilight 6:06 AM EDT 6:30 PM EDT
Astronomical Twilight 5:32 AM EDT 7:04 PM EDT
Moon 11:03 AM EDT (10/31) 8:11 PM EDT (10/31)
Length of Visible Light 11h 14m
Length of Day
10h 13m
Waxing Crescent, 15% of the Moon is Illuminated
Oct 31
Waxing Crescent
Nov 4
First Quarter
Nov 12
Full
Nov 19
Last Quarter
Nov 26
New

Hourly Weather History & Observations

Time (EDT) Temp. Dew Point Humidity Pressure Visibility Wind Dir Wind Speed Gust Speed Precip Events Conditions
12:24 AM 55.0 °F 54.0 °F 96% 30.19 in 3.0 mi SSE 6.9 mph - 0.00 in   Light Drizzle
12:33 AM 54.0 °F 54.0 °F 100% 30.18 in 2.5 mi SSE 5.8 mph - 0.00 in   Light Drizzle
12:53 AM 54.0 °F 54.0 °F 100% 30.17 in 2.0 mi SSE 4.6 mph - 0.00 in   Light Drizzle
1:53 AM 54.0 °F 54.0 °F 100% 30.15 in 3.0 mi SE 4.6 mph - 0.00 in   Light Drizzle
2:20 AM 55.0 °F 54.0 °F 96% 30.14 in 2.5 mi SE 4.6 mph - 0.01 in Rain Light Rain
2:38 AM 54.0 °F 54.0 °F 100% 30.13 in 3.0 mi SE 5.8 mph - 0.02 in Rain Light Rain
2:49 AM 55.4 °F 53.6 °F 94% 30.12 in 3.0 mi SE 5.8 mph - 0.02 in Rain Light Rain
2:53 AM 55.0 °F 54.0 °F 96% 30.11 in 2.5 mi SE 4.6 mph - 0.03 in Rain Light Rain
3:12 AM 55.0 °F 54.0 °F 96% 30.09 in 4.0 mi ESE 5.8 mph - 0.00 in Rain Light Rain
3:26 AM 55.0 °F 54.0 °F 96% 30.08 in 2.5 mi ESE 5.8 mph - 0.00 in Rain Light Rain
3:53 AM 54.0 °F 54.0 °F 100% 30.07 in 3.0 mi SE 4.6 mph - 0.02 in Rain Light Rain
4:36 AM 55.0 °F 54.0 °F 96% 30.05 in 2.0 mi SE 3.5 mph - 0.01 in   Light Drizzle
4:53 AM 55.0 °F 55.0 °F 100% 30.04 in 2.0 mi SE 4.6 mph - 0.01 in Rain Light Rain
5:28 AM 55.9 °F 55.0 °F 97% 30.02 in 6.0 mi SE 6.9 mph - 0.00 in   Overcast
5:45 AM 55.9 °F 55.0 °F 97% 30.02 in 2.5 mi South 4.6 mph - 0.00 in   Overcast
5:53 AM 55.9 °F 55.0 °F 97% 30.01 in 1.8 mi South 4.6 mph - 0.00 in   Light Drizzle
6:05 AM 55.9 °F 55.9 °F 100% 30.01 in 3.0 mi South 5.8 mph - 0.00 in   Light Drizzle
6:53 AM 57.0 °F 55.9 °F 96% 30.00 in 5.0 mi South 10.4 mph - 0.01 in Rain Light Rain
7:03 AM 57.0 °F 55.9 °F 96% 30.00 in 0.5 mi South 10.4 mph - 0.00 in Rain Light Rain
7:53 AM 57.0 °F 57.0 °F 100% 29.99 in 0.2 mi South 8.1 mph - 0.00 in   Overcast
8:53 AM 57.9 °F 57.0 °F 97% 29.97 in 0.2 mi South 11.5 mph - 0.00 in Rain Light Rain
9:10 AM 57.9 °F 57.0 °F 97% 29.98 in 2.0 mi South 11.5 mph - 0.00 in Rain Light Rain
9:53 AM 59.0 °F 57.9 °F 96% 29.96 in 2.0 mi South 10.4 mph - 0.04 in Rain Light Rain
10:19 AM 59.0 °F 57.9 °F 96% 29.95 in 1.5 mi South 12.7 mph - 0.01 in Rain Light Rain
10:53 AM 60.1 °F 59.0 °F 96% 29.92 in 3.0 mi South 10.4 mph - 0.02 in Rain Light Rain
11:42 AM 60.1 °F 57.9 °F 93% 29.90 in 1.5 mi South 13.8 mph - 0.08 in Rain Rain
11:53 AM 60.1 °F 59.0 °F 96% 29.89 in 1.5 mi South 10.4 mph - 0.11 in Rain Rain
12:06 PM 60.1 °F 57.9 °F 93% 29.88 in 1.5 mi South 12.7 mph - 0.01 in Rain Light Rain
12:30 PM 60.1 °F 57.9 °F 93% 29.86 in 5.0 mi South 13.8 mph - 0.01 in   Overcast
12:53 PM 60.1 °F 59.0 °F 96% 29.85 in 4.0 mi South 11.5 mph - 0.01 in Rain Light Rain
1:53 PM 61.0 °F 59.0 °F 93% 29.82 in 5.0 mi South 11.5 mph - 0.00 in   Overcast
2:20 PM 61.0 °F 59.0 °F 93% 29.81 in 2.5 mi South 12.7 mph - 0.00 in Rain Light Rain
2:49 PM 60.8 °F 60.8 °F 100% 29.79 in 1.8 mi South 9.2 mph - 0.00 in Rain Light Rain
2:53 PM 61.0 °F 60.1 °F 97% 29.79 in 1.2 mi South 9.2 mph - 0.00 in Rain Light Rain
3:34 PM 61.0 °F 60.1 °F 97% 29.78 in 2.0 mi South 10.4 mph - 0.02 in Rain Light Rain
3:46 PM 61.0 °F 60.1 °F 97% 29.78 in 6.0 mi South 10.4 mph - 0.02 in Rain Light Rain
3:53 PM 62.1 °F 60.1 °F 93% 29.77 in 6.0 mi South 11.5 mph - 0.03 in   Overcast
4:53 PM 62.1 °F 61.0 °F 96% 29.75 in 4.0 mi South 15.0 mph - 0.00 in   Overcast
5:53 PM 63.0 °F 62.1 °F 97% 29.72 in 6.0 mi South 16.1 mph - 0.00 in   Light Drizzle
6:53 PM 63.0 °F 61.0 °F 93% 29.69 in 10.0 mi South 20.7 mph 28.8 mph 0.00 in   Overcast
7:53 PM 62.1 °F 60.1 °F 93% 29.68 in 5.0 mi South 19.6 mph 31.1 mph 0.02 in Rain Light Rain
8:53 PM 62.1 °F 60.1 °F 93% 29.65 in 6.0 mi South 19.6 mph 29.9 mph 0.02 in Rain Light Rain
9:53 PM 62.1 °F 60.1 °F 93% 29.63 in 8.0 mi South 21.9 mph 31.1 mph 0.01 in Rain Light Rain
10:53 PM 63.0 °F 61.0 °F 93% 29.60 in 8.0 mi South 18.4 mph 33.4 mph 0.01 in   Overcast
11:53 PM 63.0 °F 62.1 °F 97% 29.58 in 2.5 mi South 20.7 mph 32.2 mph 0.01 in Rain Light Rain